Location: Newark
(48.1500°N, 2.9667°W)
Time: 13:48:13
(UTC+00:00)

A-11 Canister half - Pass Details

Date: 23 January 2020
Orbit: 1524 x 1684 km, 47.3° (Epoch: 28 February)

Event Time Altitude Azimuth Distance (km) Brightness Sun altitude
Rises 18:58:25 0° 238° (WSW) 4,675 12.7 -20.1°
Reaches altitude 10° 19:01:26 10° 236° (SW) 3,704 11.9 -20.6°
Maximum altitude 19:10:40 67° 156° (SSE) 1,674 9.0 -22.1°
Enters shadow 19:15:08 35° 87° (E) 2,337 9.4 -22.8°
Drops below altitude 10° 19:20:13 10° 77° (ENE) 3,820 - -23.7°
Sets 19:23:23 0° 75° (ENE) 4,829 - -24.2°
